This is the latest recevied weather packets stored in our database for station/object SPRFLD. If no packets are shown the sender has not sent any weather packets the latest 10 day(s).
| Time | Temp. | Humidity | Pressure | Rain* | Wind** | Luminosity | Snow |
|---|---|---|---|---|---|---|---|
| 1777592312 | 25° C | 40% | 1016.7 hPa | 0 mm | - | - | - |
| 1777591108 | 24.44° C | 41% | 1016.9 hPa | 0 mm | - | - | - |
| 1777589925 | 24.44° C | 43% | 1017.1 hPa | 0 mm | - | - | - |
| 1777586301 | 23.33° C | 43% | 1017.9 hPa | 0 mm | - | - | - |
| 1777584539 | 22.78° C | 46% | 1017.9 hPa | 0 mm | - | - | - |
| 1777581488 | 21.67° C | 48% | 1018.2 hPa | 0 mm | - | - | - |
| 1777579682 | 20° C | 52% | 1018.3 hPa | 0 mm | - | - | - |
| 1777577905 | 17.78° C | 57% | 1018.4 hPa | 0 mm | - | - | - |
| 1777565295 | 10° C | 80% | 1019.6 hPa | 0 mm | - | - | - |
| 1777562285 | 10° C | 80% | 1019.7 hPa | 0 mm | - | - | - |
| 1777560509 | 9.44° C | 75% | 1019.5 hPa | 0 mm | - | - | - |
| 1777558702 | 8.89° C | 71% | 1019.4 hPa | 0 mm | - | - | - |
| 1777555693 | 8.89° C | 73% | 1019 hPa | 0 mm | - | - | - |
| 1777553285 | 8.89° C | 74% | 1018.9 hPa | 0 mm | - | - | - |
| 1777548499 | 9.44° C | 76% | 1019.3 hPa | 0 mm | - | - | - |
| 1777546693 | 10° C | 76% | 1019.4 hPa | 0 mm | - | - | - |
| 1777541305 | 10.56° C | 73% | 1019.8 hPa | 0 mm | - | - | - |
| 1777540101 | 10.56° C | 73% | 1019.9 hPa | 0 mm | - | - | - |
| 1777535283 | 11.11° C | 70% | 1020.4 hPa | 0 mm | - | - | - |
| 1777531100 | 11.67° C | 67% | 1020.5 hPa | 0 mm | - | - | - |
| 1777526887 | 12.22° C | 66% | 1020.9 hPa | 0 mm | - | - | - |
| 1777525682 | 12.22° C | 65% | 1020.9 hPa | 0 mm | - | - | - |
| 1777525108 | 12.22° C | 64% | 1020.9 hPa | 0 mm | - | - | - |
| 1777522700 | 12.78° C | 63% | 1021.1 hPa | 0 mm | - | - | - |
| 1777521496 | 13.33° C | 62% | 1020.8 hPa | 0 mm | - | - | - |
* Rain latest hour (hover to see other rain measurements)
** Current wind speed in m/s (hover to see current wind gust speed)